Pittsburgh, Pennsylvania, United States (15201)
Lat: 40.44N, Lon: 80W
Wx Zone: PAZ021
Local Info
Past Weather Observations for Today

NOTE: This archive is for the closest National Weather Service station to Pittsburgh. Information may differ from the station used for current weather conditions.

Click here for Long-term Archive

Time Weather Temperature Dewpoint Humidity Pressure Winds Precip Visibility
19:53
Mostly Cloudy
79°F / 26°C 55°F / 13°C 45% 30.09 in
(1019 mb)
SSE 3.5 mph
(SSE 6 kph)
- 10SM
18:53
Clear
79°F / 26°C 55°F / 13°C 45% 30.09 in
(1019 mb)
S 3.5 mph
(S 6 kph)
- 10SM
17:53
Clear
81°F / 27°C 55°F / 13°C 42% 30.09 in
(1019 mb)
S 6.9 mph
(S 11 kph)
- 10SM
16:53
Clear
82°F / 28°C 54°F / 12°C 37% 30.09 in
(1019 mb)
S 3.5 mph
(S 6 kph)
- 10SM
15:53
Overcast
82°F / 28°C 54°F / 12°C 37% 30.12 in
(1020 mb)
SW 6.9 mph
(SW 11 kph)
- 10SM
14:53
Partly Cloudy
82°F / 28°C 52°F / 11°C 35% 30.12 in
(1020 mb)
Variable 4.6 mph
(Variable 7 kph)
- 10SM
13:53
Partly Cloudy
81°F / 27°C 52°F / 11°C 37% 30.15 in
(1021 mb)
SSW 12.7 mph
(SSW 20 kph)
- 10SM
12:53
Clear
82°F / 28°C 54°F / 12°C 37% 30.15 in
(1021 mb)
SSW 6.9 mph
(SSW 11 kph)
- 10SM
11:53
Partly Cloudy
81°F / 27°C 54°F / 12°C 39% 30.18 in
(1022 mb)
Variable 4.6 mph
(Variable 7 kph)
- 10SM
10:53
Clear
79°F / 26°C 54°F / 12°C 42% 30.21 in
(1023 mb)
Variable 4.6 mph
(Variable 7 kph)
- 10SM
09:53
Clear
73°F / 23°C 54°F / 12°C 50% 30.21 in
(1023 mb)
S 6.9 mph
(S 11 kph)
- 10SM
08:53
Clear
68°F / 20°C 54°F / 12°C 60% 30.21 in
(1023 mb)
Calm - 10SM
07:53
Clear
63°F / 17°C 54°F / 12°C 73% 30.21 in
(1023 mb)
S 5.8 mph
(S 9 kph)
- 10SM
06:53
Clear
Hazy
57°F / 14°C 54°F / 12°C 88% 30.18 in
(1022 mb)
S 3.5 mph
(S 6 kph)
- 5SM
05:53
Clear
Hazy
57°F / 14°C 52°F / 11°C 82% 30.18 in
(1022 mb)
S 3.5 mph
(S 6 kph)
- 4SM
04:53
Clear
Fog And Mist
55°F / 13°C 52°F / 11°C 88% 30.15 in
(1021 mb)
SSE 5.8 mph
(SSE 9 kph)
- 3SM
03:53
Clear
57°F / 14°C 52°F / 11°C 82% 30.15 in
(1021 mb)
SE 3.5 mph
(SE 6 kph)
- 7SM
02:53
Clear
Hazy
63°F / 17°C 52°F / 11°C 68% 30.15 in
(1021 mb)
Calm - 5SM
01:53
Clear
61°F / 16°C 50°F / 10°C 68% 30.18 in
(1022 mb)
Calm - 10SM
00:53
Clear
64°F / 18°C 50°F / 10°C 60% 30.18 in
(1022 mb)
Calm - 10SM
Time Weather Temperature Dewpoint Humidity Pressure Winds Precip Visibility


Weather for websites

WeatherForYou.com, LLC is not responsible for any damages or problems caused by this service. Current weather conditions are obtained from the closest station including government and personal stations which may have varying degrees of accuracy. Weather forecasts are derived from the NOAA NDFD. Like all things, this site belongs to Jesus Christ... He just trusts us to maintain it. If you have any questions or comments email webmaster@weatherforyou.com

Copyright © 2015, WeatherForYou.com LLC. All rights reserved.